Weather History for KLWC - January, 2014

Change the Weather History Date:

Saturday, January 4, 2014

  Actual Average Record
Temperature  
Mean Temperature 30 °F 29 °F  
Max Temperature 43 °F 39 °F 64 °F (1997)
Min Temperature 17 °F 18 °F -2 °F (1999)
Degree Days  
Heating Degree Days 35 36  
Month to date heating degree days 176 144  
Since 1 July heating degree days 2327 2187  
Cooling Degree Days 0 0  
Month to date cooling degree days 0 0  
Year to date cooling degree days 0 0  
Moisture  
Dew Point 18 °F    
Average Humidity 67    
Maximum Humidity 81    
Minimum Humidity 52    
Precipitation  
Precipitation 0.03 in 0.03 in 0.90 in (2005)
Month to date precipitation 0.05 0.12  
Year to date precipitation 0.05 0.12  
Sea Level Pressure  
Sea Level Pressure 29.95 in    
Wind  
Wind Speed 11 mph (North)    
Max Wind Speed 29 mph    
Max Gust Speed 35 mph    
Visibility 7 miles    
Events Snow    
T = Trace of Precipitation, MM = Missing Value Source: NWS Daily Summary

Daily Weather History Graph

Daily Weather History Graph

Search for Another Location

Airport or City:

Trip Planner

Search our weather history database for the weather conditions in past years. The results will help you decide how hot, cold, wet, or windy it might be!

Date:

Astronomy

Jan. 04, 2014 Rise Set
Actual Time 7:40 AM CST 5:11 PM CST
Civil Twilight 7:10 AM CST 5:41 PM CST
Nautical Twilight 6:36 AM CST 6:15 PM CST
Astronomical Twilight 6:04 AM CST 6:47 PM CST
Moon 9:48 AM CST (1/4) 9:30 PM CST (1/4)
Length of Visible Light 10h 31m
Length of Day
9h 31m
Waxing Crescent, 15% of the Moon is Illuminated
Jan 4
Waxing Crescent
Jan 7
First Quarter
Jan 15
Full
Jan 23
Last Quarter
Jan 30
New

Hourly Weather History & Observations

Time (CST) Temp. Windchill Dew Point Humidity Pressure Visibility Wind Dir Wind Speed Gust Speed Precip Events Conditions
12:52 AM 37.0 °F 28.1 °F 21.9 °F 54% 29.75 in 10.0 mi South 15.0 mph 29.9 mph N/A   Clear
1:52 AM 36.0 °F 28.0 °F 21.9 °F 57% 29.77 in 10.0 mi South 11.5 mph 18.4 mph N/A   Clear
2:52 AM 36.0 °F 27.5 °F 21.9 °F 57% 29.77 in 10.0 mi South 12.7 mph - N/A   Clear
3:52 AM 35.1 °F 27.4 °F 21.9 °F 59% 29.77 in 10.0 mi South 10.4 mph - N/A   Clear
4:52 AM 34.0 °F 27.2 °F 21.9 °F 61% 29.79 in 10.0 mi SSW 8.1 mph - N/A   Clear
5:52 AM 30.0 °F 26.5 °F 21.0 °F 69% 29.81 in 10.0 mi ESE 3.5 mph - N/A   Clear
6:52 AM 28.9 °F - 21.0 °F 72% 29.83 in 10.0 mi Calm Calm - N/A   Clear
7:52 AM 24.1 °F 18.2 °F 19.0 °F 81% 29.85 in 10.0 mi ESE 4.6 mph - N/A   Clear
8:52 AM 33.1 °F - 25.0 °F 72% 29.86 in 10.0 mi Calm Calm - N/A   Partly Cloudy
9:52 AM 37.0 °F 32.4 °F 25.0 °F 62% 29.87 in 10.0 mi SE 5.8 mph - N/A   Overcast
10:52 AM 39.9 °F - 25.0 °F 55% 29.86 in 10.0 mi Calm Calm - N/A   Overcast
11:52 AM 42.1 °F 35.7 °F 26.1 °F 53% 29.87 in 10.0 mi NNW 11.5 mph - N/A   Overcast
12:38 PM 36.0 °F 23.7 °F 26.1 °F 67% 29.87 in 10.0 mi NNW 26.5 mph 33.4 mph N/A   Overcast
12:52 PM 33.1 °F 20.9 °F 24.1 °F 70% 29.90 in 10.0 mi North 21.9 mph 29.9 mph N/A   Overcast
1:52 PM 30.0 °F 19.1 °F 21.0 °F 69% 29.89 in 10.0 mi North 15.0 mph 28.8 mph N/A   Overcast
2:52 PM 28.0 °F 16.5 °F 19.0 °F 69% 29.95 in 10.0 mi North 15.0 mph - N/A   Overcast
3:52 PM 26.1 °F 13.6 °F 17.1 °F 69% 29.99 in 10.0 mi NNW 16.1 mph - N/A   Overcast
4:52 PM 24.1 °F 12.5 °F 15.1 °F 69% 30.03 in 10.0 mi North 12.7 mph 25.3 mph N/A   Overcast
5:52 PM 21.9 °F 8.7 °F 15.1 °F 75% 30.05 in 10.0 mi North 15.0 mph - N/A   Overcast
6:52 PM 21.0 °F 8.1 °F 12.9 °F 71% 30.06 in 10.0 mi North 13.8 mph - N/A   Overcast
7:52 PM 19.9 °F 5.7 °F 12.9 °F 74% 30.10 in 5.0 mi North 16.1 mph 21.9 mph 0.00 in Snow Light Snow
8:12 PM 19.9 °F 8.6 °F 12.0 °F 71% 30.08 in 2.5 mi North 10.4 mph 23.0 mph 0.00 in Snow Light Snow
8:32 PM 19.0 °F 5.6 °F 12.9 °F 77% 30.09 in 1.8 mi North 13.8 mph - 0.00 in Snow Light Snow
8:52 PM 19.0 °F 6.8 °F 12.9 °F 77% 30.12 in 1.5 mi North 11.5 mph 18.4 mph 0.00 in Snow Light Snow
9:52 PM 18.0 °F 4.8 °F 12.9 °F 81% 30.14 in 1.8 mi North 12.7 mph - 0.01 in Snow Light Snow
10:34 PM 18.0 °F 4.8 °F 12.9 °F 81% 30.11 in 0.8 mi North 12.7 mph - 0.01 in Snow Light Snow
10:41 PM 18.0 °F 4.8 °F 12.9 °F 81% 30.10 in 1.0 mi North 12.7 mph - 0.02 in Snow Light Snow
10:52 PM 18.0 °F 5.4 °F 12.0 °F 78% 30.12 in 1.0 mi North 11.5 mph - 0.02 in Snow Light Snow
11:02 PM 18.0 °F 4.8 °F 12.0 °F 78% 30.10 in 1.2 mi North 12.7 mph - 0.00 in Snow Light Snow
11:52 PM 17.1 °F 3.6 °F 10.9 °F 77% 30.11 in 1.5 mi North 12.7 mph 23.0 mph 0.00 in Snow Light Snow